Temp
-12 -11 -11 -11 -11 -11 -11 -11 -11 -11 -11 -11 -11 -11 -11 -11 -11 -11 -11 -10 -10 -10 -10 -10 -11 -12 -13 -15 -17 -17 -17 -18 -18 -18 -18 -18 -19 -19 -19 -19 -19 -19 -19 -19 -18 -18 -17
-12 -12 -12 -11 -11 -11 -11 -11 -11 -11 -12 -12 -12 -11 -11 -11 -11 -11 -11 -11 -11 -11 -10 -10 -11 -12 -13 -15 -17 -17 -17 -17 -18 -18 -18 -18 -18 -19 -19 -19 -19 -19 -19 -19 -18 -18 -18
-12 -12 -12 -12 -11 -11 -11 -11 -11 -11 -12 -12 -12 -12 -12 -11 -12 -11 -11 -11 -11 -11 -11 -11 -11 -12 -14 -15 -16 -17 -17 -17 -17 -18 -18 -18 -18 -18 -18 -19 -19 -19 -19 -19 -19 -19 -18
-12 -12 -12 -12 -12 -12 -11 -11 -12 -12 -12 -12 -12 -12 -12 -12 -12 -12 -12 -12 -12 -11 -11 -11 -12 -13 -14 -15 -16 -17 -17 -18 -18 -18 -18 -18 -18 -18 -18 -19 -19 -19 -20 -19 -19 -19 -19
-12 -12 -12 -12 -12 -12 -12 -12 -12 -12 -12 -12 -12 -12 -12 -12 -12 -12 -12 -12 -12 -12 -12 -12 -12 -13 -14 -14 -15 -17 -17 -18 -18 -18 -18 -18 -18 -18 -19 -19 -19 -19 -19 -19 -19 -19 -19
-13 -13 -12 -12 -12 -12 -12 -12 -12 -12 -12 -12 -12 -12 -12 -12 -12 -12 -12 -12 -12 -12 -12 -12 -12 -13 -14 -15 -15 -16 -17 -18 -18 -18 -19 -18 -18 -18 -19 -19 -19 -19 -19 -19 -19 -19 -19
-13 -13 -13 -13 -13 -13 -12 -12 -12 -12 -12 -12 -12 -12 -12 -12 -12 -13 -13 -13 -13 -13 -12 -13 -13 -13 -14 -14 -15 -16 -17 -18 -18 -18 -19 -18 -18 -18 -18 -19 -19 -19 -19 -19 -19 -19 -19
-13 -13 -13 -13 -13 -13 -13 -13 -13 -13 -13 -13 -13 -13 -13 -13 -13 -13 -13 -13 -13 -13 -13 -13 -13 -13 -14 -15 -15 -16 -16 -17 -18 -18 -18 -18 -18 -19 -19 -19 -19 -19 -19 -19 -19 -19 -19
-14 -14 -14 -14 -14 -13 -13 -13 -13 -13 -13 -13 -13 -13 -13 -13 -13 -13 -13 -13 -13 -13 -13 -13 -13 -14 -14 -15 -15 -15 -16 -16 -17 -18 -18 -18 -18 -18 -18 -19 -19 -19 -19 -19 -20 -19 -19
-14 -14 -14 -14 -14 -14 -14 -14 -14 -13 -13 -13 -13 -13 -13 -13 -13 -13 -13 -13 -13 -13 -13 -13 -13 -14 -14 -14 -15 -15 -16 -16 -16 -17 -18 -18 -18 -18 -18 -19 -19 -19 -20 -20 -20 -20 -19
-14 -14 -14 -14 -14 -14 -14 -14 -14 -14 -14 -14 -13 -14 -14 -14 -14 -14 -14 -13 -13 -13 -14 -14 -14 -14 -14 -14 -15 -15 -15 -16 -16 -17 -17 -18 -18 -18 -18 -19 -19 -19 -20 -20 -20 -19 -19
-14 -14 -14 -14 -14 -14 -14 -14 -14 -14 -14 -14 -14 -14 -14 -14 -14 -14 -14 -14 -14 -14 -14 -14 -14 -14 -14 -14 -15 -15 -15 -16 -16 -17 -17 -17 -18 -18 -18 -19 -19 -19 -20 -19 -19 -20 -19
-14 -15 -15 -14 -14 -14 -15 -15 -15 -15 -14 -14 -14 -14 -14 -14 -14 -14 -14 -14 -14 -14 -14 -14 -14 -14 -14 -14 -15 -15 -15 -16 -16 -16 -17 -17 -18 -18 -18 -18 -19 -19 -19 -19 -19 -19 -20
-15 -15 -15 -15 -15 -15 -15 -15 -15 -15 -15 -15 -15 -14 -14 -14 -14 -14 -14 -14 -14 -14 -14 -14 -14 -14 -14 -15 -15 -15 -15 -15 -16 -16 -17 -17 -17 -18 -18 -18 -18 -19 -19 -19 -19 -19 -19
-16 -15 -15 -15 -15 -15 -15 -15 -15 -15 -15 -15 -15 -15 -15 -15 -15 -15 -15 -15 -15 -15 -15 -15 -15 -15 -15 -14 -14 -15 -15 -15 -15 -16 -16 -16 -17 -17 -17 -17 -18 -18 -18 -19 -19 -19 -18
-16 -16 -16 -16 -16 -16 -16 -15 -16 -16 -16 -16 -15 -16 -15 -15 -15 -15 -15 -15 -15 -15 -15 -15 -15 -15 -15 -15 -15 -14 -15 -15 -15 -15 -16 -16 -16 -17 -17 -17 -17 -17 -17 -17 -18 -18 -18
-17 -17 -17 -16 -17 -16 -16 -16 -16 -16 -16 -16 -16 -16 -16 -15 -15 -15 -15 -16 -15 -15 -15 -15 -15 -15 -16 -15 -15 -15 -15 -15 -15 -15 -15 -16 -16 -16 -16 -17 -17 -17 -17 -17 -17 -18 -18
-17 -17 -17 -17 -17 -17 -17 -17 -17 -17 -16 -16 -16 -16 -16 -16 -16 -16 -16 -16 -16 -16 -16 -16 -16 -16 -16 -16 -16 -16 -15 -15 -15 -15 -15 -15 -16 -16 -16 -16 -16 -16 -17 -17 -17 -17 -17
-16 -16 -16 -17 -17 -17 -17 -18 -18 -17 -17 -17 -16 -16 -16 -16 -16 -16 -16 -16 -16 -16 -16 -16 -16 -16 -16 -16 -16 -16 -16 -16 -15 -15 -15 -15 -15 -15 -16 -16 -16 -16 -16 -16 -16 -16 -16
-15 -16 -16 -17 -17 -17 -17 -17 -18 -17 -18 -18 -17 -17 -17 -17 -16 -16 -16 -17 -17 -16 -16 -16 -16 -16 -16 -16 -16 -16 -16 -16 -16 -15 -15 -15 -15 -15 -15 -15 -16 -15 -16 -16 -16 -16 -16
-16 -16 -16 -16 -16 -16 -17 -17 -17 -17 -18 -18 -18 -17 -17 -17 -17 -17 -17 -17 -17 -17 -16 -17 -16 -16 -17 -16 -16 -16 -16 -16 -16 -16 -16 -15 -15 -15 -15 -15 -15 -15 -15 -15 -15 -16 -16
-16 -16 -16 -16 -16 -16 -16 -16 -17 -17 -17 -18 -17 -18 -18 -17 -17 -18 -17 -17 -17 -18 -18 -17 -17 -17 -17 -17 -17 -16 -16 -16 -16 -16 -16 -16 -15 -15 -16 -15 -15 -15 -15 -15 -15 -15 -15
-16 -16 -16 -16 -16 -17 -17 -16 -16 -17 -17 -17 -17 -18 -18 -17 -18 -18 -18 -18 -18 -18 -18 -18 -17 -17 -17 -17 -16 -17 -16 -16 -16 -15 -15 -16 -16 -15 -15 -16 -15 -15 -15 -15 -15 -15 -15
-16 -16 -17 -17 -17 -17 -17 -17 -17 -16 -16 -17 -17 -18 -18 -17 -18 -18 -18 -18 -18 -18 -19 -19 -18 -18 -18 -17 -17 -17 -17 -17 -16 -16 -16 -16 -16 -16 -15 -16 -16 -16 -15 -15 -15 -15 -15
-17 -18 -17 -17 -17 -17 -17 -17 -17 -17 -17 -16 -17 -17 -17 -17 -17 -17 -18 -18 -18 -19 -19 -19 -19 -19 -18 -18 -17 -17 -17 -16 -16 -16 -16 -16 -16 -16 -16 -16 -16 -16 -16 -16 -16 -15 -15
-18 -18 -18 -18 -18 -18 -18 -18 -18 -17 -17 -17 -17 -17 -17 -16 -15 -17 -18 -18 -18 -19 -19 -19 -19 -19 -19 -19 -18 -17 -17 -17 -16 -16 -16 -16 -16 -16 -16 -16 -16 -16 -16 -16 -16 -16 -16
-19 -19 -19 -18 -18 -18 -18 -18 -18 -18 -18 -18 -17 -17 -17 -16 -15 -16 -18 -18 -19 -19 -19 -19 -19 -19 -19 -19 -19 -18 -18 -18 -17 -17 -17 -17 -16 -16 -17 -17 -16 -16 -16 -16 -16 -16 -16
-20 -19 -19 -19 -19 -19 -18 -18 -18 -18 -18 -18 -18 -17 -17 -17 -16 -16 -17 -18 -19 -19 -19 -19 -19 -19 -19 -19 -19 -19 -18 -18 -18 -18 -17 -17 -17 -17 -17 -17 -17 -17 -16 -16 -16 -16 -16
-20 -20 -20 -19 -19 -19 -19 -18 -18 -18 -18 -18 -18 -18 -18 -17 -16 -16 -16 -17 -18 -19 -19 -20 -20 -20 -20 -20 -20 -19 -18 -19 -18 -18 -18 -17 -17 -17 -17 -17 -17 -17 -17 -17 -17 -17 -17
Height
5844 5845 5845 5845 5844 5843 5841 5840 5839 5838 5836 5835 5834 5833 5831 5829 5826 5822 5818 5813 5809 5803 5796 5788 5778 5767 5754 5743 5732 5726 5720 5714 5708 5703 5699 5694 5691 5687 5685 5683 5683 5682 5682 5684 5687 5692 5698
5843 5843 5843 5843 5842 5841 5840 5838 5837 5836 5835 5834 5833 5831 5829 5827 5824 5820 5816 5811 5807 5801 5793 5785 5775 5765 5754 5743 5731 5726 5720 5714 5707 5702 5697 5693 5689 5684 5680 5679 5679 5679 5679 5679 5682 5685 5690
5840 5841 5841 5840 5839 5838 5838 5836 5835 5834 5833 5832 5831 5829 5827 5824 5821 5818 5814 5810 5805 5799 5791 5782 5773 5763 5753 5743 5732 5725 5719 5714 5707 5702 5698 5693 5687 5681 5677 5676 5676 5676 5676 5676 5676 5678 5684
5837 5838 5838 5837 5837 5836 5835 5835 5833 5832 5830 5829 5828 5826 5824 5822 5819 5816 5812 5808 5803 5797 5790 5781 5772 5763 5753 5742 5732 5725 5719 5714 5708 5702 5697 5692 5687 5683 5679 5676 5675 5674 5673 5673 5674 5675 5679
5835 5835 5835 5835 5834 5833 5832 5832 5831 5829 5828 5827 5825 5823 5822 5819 5816 5814 5810 5806 5801 5796 5789 5780 5772 5763 5754 5743 5734 5726 5720 5714 5708 5702 5697 5692 5689 5685 5682 5679 5676 5672 5670 5669 5669 5670 5672
5832 5832 5832 5832 5832 5831 5830 5830 5828 5827 5825 5824 5823 5821 5819 5817 5814 5811 5809 5804 5799 5795 5789 5780 5772 5765 5755 5746 5736 5728 5721 5715 5709 5703 5698 5693 5690 5687 5683 5679 5676 5672 5670 5669 5668 5667 5668
5829 5829 5829 5829 5829 5827 5827 5827 5826 5824 5822 5822 5820 5819 5817 5815 5812 5809 5806 5803 5800 5794 5788 5780 5772 5763 5755 5747 5738 5730 5723 5717 5711 5705 5700 5694 5692 5688 5684 5680 5678 5674 5671 5669 5667 5663 5665
5826 5826 5826 5825 5825 5825 5824 5824 5823 5821 5819 5818 5817 5816 5814 5812 5809 5807 5804 5800 5796 5793 5787 5780 5772 5765 5757 5749 5741 5733 5726 5720 5713 5708 5703 5699 5692 5688 5684 5682 5678 5675 5672 5669 5667 5665 5665
5822 5823 5823 5823 5822 5822 5822 5822 5821 5819 5817 5815 5814 5813 5811 5809 5807 5804 5801 5798 5795 5791 5786 5780 5773 5766 5759 5752 5744 5736 5729 5722 5716 5711 5706 5702 5697 5690 5686 5683 5680 5676 5674 5671 5669 5667 5668
5819 5819 5820 5820 5820 5819 5819 5819 5818 5817 5815 5813 5812 5810 5808 5806 5806 5802 5799 5796 5793 5789 5785 5781 5774 5768 5761 5754 5747 5740 5733 5727 5721 5715 5709 5705 5700 5695 5688 5683 5681 5677 5676 5674 5672 5671 5671
5814 5815 5816 5815 5815 5816 5815 5815 5816 5814 5813 5812 5810 5808 5806 5804 5802 5800 5798 5794 5790 5787 5785 5781 5774 5769 5762 5757 5750 5743 5737 5730 5725 5720 5714 5709 5703 5698 5694 5688 5684 5681 5677 5676 5674 5673 5673
5809 5810 5810 5811 5811 5811 5811 5811 5811 5811 5809 5809 5807 5805 5804 5803 5800 5797 5795 5792 5790 5787 5782 5779 5774 5769 5764 5758 5752 5746 5740 5734 5728 5723 5718 5713 5708 5703 5698 5694 5689 5685 5681 5678 5677 5675 5675
5801 5802 5803 5804 5805 5805 5806 5806 5806 5806 5805 5804 5803 5803 5801 5800 5798 5795 5793 5791 5789 5784 5782 5778 5773 5769 5764 5759 5754 5748 5743 5737 5732 5727 5722 5717 5713 5708 5703 5699 5694 5689 5686 5683 5682 5679 5677
5794 5796 5797 5797 5798 5799 5799 5800 5801 5801 5801 5800 5799 5798 5798 5796 5795 5792 5790 5789 5787 5783 5780 5776 5772 5768 5765 5760 5756 5750 5745 5740 5735 5730 5725 5721 5716 5713 5708 5704 5700 5696 5691 5687 5684 5683 5681
5786 5787 5789 5790 5791 5791 5792 5793 5794 5795 5796 5796 5794 5794 5793 5792 5791 5790 5788 5786 5784 5781 5779 5775 5771 5768 5764 5760 5756 5751 5747 5742 5737 5732 5728 5724 5720 5716 5713 5709 5706 5701 5697 5694 5690 5686 5685
5775 5778 5780 5781 5782 5784 5785 5785 5787 5787 5789 5790 5790 5789 5788 5787 5786 5785 5784 5781 5779 5778 5776 5773 5770 5766 5762 5759 5755 5751 5747 5744 5739 5734 5730 5727 5723 5719 5715 5712 5708 5704 5701 5698 5694 5691 5688
5767 5768 5769 5771 5773 5775 5776 5778 5779 5779 5780 5782 5783 5783 5782 5782 5781 5781 5779 5777 5775 5773 5771 5770 5767 5764 5760 5757 5753 5750 5747 5744 5740 5735 5731 5728 5724 5722 5717 5714 5710 5708 5704 5701 5698 5695 5693
5757 5758 5759 5761 5762 5764 5765 5768 5769 5770 5770 5772 5773 5775 5776 5775 5775 5774 5774 5772 5771 5769 5767 5765 5763 5761 5757 5754 5751 5748 5744 5742 5739 5736 5732 5728 5725 5721 5718 5715 5712 5710 5707 5704 5702 5700 5697
5745 5747 5749 5751 5752 5752 5753 5755 5758 5760 5761 5762 5762 5764 5766 5767 5767 5767 5766 5765 5764 5763 5762 5760 5758 5756 5753 5750 5747 5744 5741 5739 5736 5734 5731 5728 5725 5722 5719 5717 5713 5710 5708 5706 5703 5701 5700
5732 5733 5734 5737 5739 5740 5742 5742 5745 5747 5749 5750 5751 5752 5756 5757 5758 5758 5758 5758 5757 5756 5755 5753 5752 5750 5748 5745 5742 5739 5737 5734 5732 5730 5728 5726 5724 5720 5718 5716 5713 5710 5708 5706 5704 5702 5700
5718 5720 5722 5722 5724 5726 5728 5730 5731 5733 5735 5736 5738 5740 5744 5745 5748 5748 5748 5749 5750 5747 5747 5747 5746 5743 5741 5739 5737 5734 5731 5729 5726 5724 5722 5721 5721 5719 5715 5713 5711 5708 5707 5705 5703 5702 5700
5702 5704 5706 5708 5710 5711 5713 5715 5716 5719 5721 5722 5724 5728 5731 5733 5735 5737 5737 5741 5740 5738 5737 5739 5737 5736 5733 5732 5729 5727 5724 5721 5720 5718 5716 5715 5714 5714 5714 5710 5708 5706 5704 5702 5701 5700 5698
5683 5685 5688 5691 5693 5695 5697 5700 5700 5702 5705 5706 5711 5714 5715 5718 5720 5724 5727 5730 5729 5729 5728 5728 5728 5726 5725 5723 5722 5720 5717 5715 5712 5710 5708 5707 5706 5705 5708 5706 5704 5703 5700 5699 5698 5696 5695
5665 5666 5668 5671 5674 5677 5680 5682 5685 5685 5688 5691 5694 5696 5697 5702 5704 5710 5714 5716 5717 5716 5716 5718 5717 5716 5716 5714 5713 5712 5710 5707 5705 5702 5700 5699 5697 5696 5698 5697 5698 5697 5696 5695 5694 5693 5692
5647 5647 5648 5651 5655 5657 5659 5662 5667 5669 5671 5674 5677 5678 5681 5685 5689 5694 5698 5703 5704 5704 5704 5705 5706 5706 5704 5703 5702 5700 5699 5698 5696 5694 5692 5690 5688 5687 5687 5689 5688 5688 5688 5689 5689 5689 5688
5625 5627 5629 5631 5633 5636 5639 5642 5647 5650 5652 5654 5659 5662 5664 5667 5676 5678 5682 5687 5689 5692 5692 5693 5694 5693 5693 5692 5691 5689 5689 5687 5684 5684 5683 5681 5679 5679 5678 5679 5678 5677 5678 5679 5680 5679 5681
5605 5606 5608 5611 5614 5615 5616 5621 5628 5631 5634 5635 5641 5643 5644 5651 5660 5661 5666 5670 5674 5676 5678 5680 5681 5681 5680 5680 5679 5680 5679 5679 5676 5674 5674 5672 5670 5670 5668 5668 5669 5668 5669 5671 5670 5672 5671
5581 5582 5585 5588 5592 5594 5596 5603 5608 5610 5613 5614 5623 5625 5626 5634 5642 5645 5649 5653 5657 5661 5663 5666 5667 5667 5669 5668 5668 5668 5667 5668 5667 5665 5663 5663 5661 5662 5661 5660 5660 5660 5661 5661 5659 5658 5658
5558 5559 5560 5564 5569 5572 5577 5580 5583 5589 5595 5597 5601 5608 5608 5611 5626 5628 5631 5636 5640 5645 5647 5648 5653 5654 5655 5656 5656 5653 5655 5655 5656 5653 5654 5652 5652 5652 5652 5651 5649 5648 5648 5647 5647 5648 5649
Wind_Speed
6 4 3 5 6 8 8 9 10 11 10 9 9 9 11 14 17 21 23 27 31 35 38 42 46 53 58 42 28 25 21 22 19 16 16 17 18 19 19 16 14 14 23 34 40 43 48
7 5 5 6 7 9 10 10 10 10 10 9 9 10 13 16 17 20 23 26 30 33 36 41 44 51 56 44 28 25 26 27 24 21 22 15 17 20 15 13 14 14 15 23 34 41 43
9 7 7 7 8 9 12 11 11 11 11 11 10 11 14 16 18 20 22 25 29 32 35 40 43 48 53 46 31 23 24 27 26 20 19 23 23 19 11 8 9 10 10 13 20 32 41
10 8 8 9 9 10 12 14 12 11 11 12 12 12 13 14 17 19 21 24 27 31 34 38 41 46 50 48 35 25 23 25 27 24 22 23 22 18 15 7 6 8 10 12 15 19 31
11 9 10 10 10 11 12 13 13 12 11 12 12 13 13 14 15 18 21 23 25 29 32 36 39 43 48 50 41 31 24 25 27 25 23 21 20 13 15 14 11 9 7 10 13 18 21
14 12 12 11 11 10 11 11 11 11 12 13 13 13 13 14 14 17 19 21 23 26 30 33 38 40 46 48 46 33 27 26 29 24 21 20 18 22 15 16 16 9 2 4 9 16 20
17 16 14 12 12 9 10 10 11 11 11 13 13 14 15 14 14 15 17 19 21 24 27 31 35 39 42 46 46 41 31 27 28 26 22 19 17 17 18 14 10 7 6 8 9 6 22
19 16 15 13 12 11 9 9 10 10 11 12 14 15 15 14 14 15 16 17 20 22 25 28 32 36 38 42 44 42 36 30 27 28 27 22 18 17 17 16 15 9 10 8 9 4 7
19 18 16 14 13 11 10 11 10 9 10 11 12 14 15 15 14 15 16 17 18 19 22 26 29 33 35 36 41 41 40 37 30 25 26 26 22 19 17 17 17 16 10 8 7 3 3
23 21 19 17 16 14 12 11 11 10 10 10 11 13 14 15 15 15 16 17 18 19 20 23 26 29 32 33 35 39 38 38 34 29 26 23 21 21 20 19 20 21 15 13 7 9 3
26 25 23 21 19 19 16 14 14 11 10 11 12 13 14 14 14 15 17 18 19 20 21 22 24 27 29 31 31 33 37 35 34 33 30 28 25 22 20 18 18 18 17 17 12 4 3
30 29 27 25 24 23 21 19 17 15 13 11 13 13 14 15 15 15 16 17 18 19 20 21 22 25 26 28 30 30 31 33 33 32 31 29 28 26 23 23 22 22 21 21 19 11 3
33 32 31 29 28 26 26 24 21 19 16 14 13 14 15 15 15 16 16 17 18 19 20 22 23 23 24 26 26 28 27 27 29 29 29 29 27 26 24 24 20 21 21 22 21 18 8
34 34 34 32 30 29 28 28 27 24 21 18 15 15 16 16 16 15 15 16 18 19 20 21 22 24 24 24 25 25 26 25 25 25 25 25 25 28 28 20 24 22 23 22 20 19 14
36 35 37 35 32 31 31 32 31 29 27 23 19 18 17 18 17 17 16 17 18 20 21 22 23 23 24 25 24 24 23 23 24 23 23 21 19 18 20 24 20 21 23 21 16 15 14
37 38 38 33 33 37 35 33 34 34 32 29 26 23 21 20 20 20 19 19 18 20 21 23 24 26 27 24 24 23 24 22 21 21 20 19 18 17 15 15 17 18 19 19 17 14 17
46 45 40 38 39 39 36 36 36 37 37 36 33 29 27 24 24 24 23 23 21 20 21 25 29 30 28 27 24 23 23 23 21 19 18 18 17 17 15 15 14 14 16 16 16 13 13
49 49 50 48 45 45 43 39 40 40 40 39 39 36 32 31 28 29 28 26 26 25 25 25 26 27 27 27 26 24 24 23 23 21 19 17 15 15 15 14 14 12 11 12 13 12 12
52 53 53 53 53 52 49 45 47 45 43 44 43 40 38 36 33 31 32 32 34 33 30 28 28 31 32 31 30 28 25 23 23 22 20 18 15 13 13 13 14 13 10 7 6 8 9
49 50 53 57 57 55 54 54 53 49 51 48 48 46 42 41 39 36 34 34 33 34 31 31 30 32 31 29 30 31 30 25 23 23 23 21 18 16 14 12 11 10 10 8 5 2 3
54 53 51 52 54 57 59 59 55 54 54 53 52 53 49 45 42 42 40 37 35 37 36 31 33 37 37 35 32 33 31 29 26 25 24 24 22 18 18 12 11 12 9 7 6 5 4
63 63 59 56 56 54 54 60 62 62 59 58 57 56 55 54 54 46 44 39 37 40 40 37 37 37 36 38 38 37 34 31 28 26 27 26 24 25 16 20 14 13 12 11 10 8 9
63 64 67 67 64 61 59 57 55 58 62 64 63 60 57 56 55 53 49 45 45 42 43 41 39 39 40 41 42 42 36 31 32 30 28 28 28 27 25 23 21 17 16 14 13 13 13
63 64 63 65 69 69 67 63 61 60 57 57 62 65 66 64 61 57 54 52 51 50 47 46 47 47 46 48 49 45 39 33 30 32 31 30 30 31 27 29 27 25 22 21 19 19 18
66 63 64 64 64 66 68 67 67 65 63 60 58 60 65 65 63 59 57 52 48 51 53 51 47 49 51 50 48 41 37 36 34 30 31 31 31 33 32 30 33 31 29 27 25 24 23
69 68 64 62 64 64 63 66 68 68 67 65 61 61 60 60 56 61 59 57 57 53 54 56 52 53 51 47 50 49 40 40 40 35 29 31 33 33 34 33 34 36 36 34 33 33 29
68 64 63 62 62 62 64 62 63 67 68 66 63 60 61 61 57 57 60 60 58 56 56 53 54 53 53 51 52 50 46 44 43 37 33 32 33 32 33 35 36 37 37 36 38 38 35
72 70 69 68 63 61 62 60 60 62 64 62 62 60 60 58 58 57 57 58 60 59 57 54 55 56 51 53 55 56 55 52 45 38 34 32 34 30 31 35 36 37 37 37 39 39 38
73 71 69 68 69 64 61 61 62 62 62 63 61 58 60 60 57 57 55 56 58 61 61 60 56 54 56 56 59 60 54 49 45 41 34 35 35 34 33 35 34 33 33 36 38 38 38
Wind_Direction
216 241 284 298 317 334 340 351 355 357 2 352 347 338 335 337 337 344 350 347 344 348 353 355 355 355 5 7 7 358 348 345 351 343 332 326 316 303 287 281 269 254 243 233 228 227 229
236 248 271 290 318 332 336 337 339 342 349 341 331 328 330 335 340 345 349 347 347 351 356 357 357 358 6 12 4 359 3 357 349 344 347 346 340 333 300 279 257 261 265 244 232 228 226
238 255 279 294 311 326 329 331 328 328 330 336 326 320 326 335 339 343 348 348 351 354 359 360 1 2 8 15 9 358 356 358 1 347 352 351 351 344 335 285 273 281 284 261 239 233 227
235 261 281 294 307 317 325 328 327 321 320 322 329 324 323 329 334 340 346 350 353 356 0 3 3 6 10 19 19 6 359 356 355 357 346 345 355 8 17 4 334 300 285 272 255 244 233
239 260 284 290 297 311 322 322 322 319 315 313 319 328 328 330 334 337 342 349 352 357 1 6 7 10 12 17 23 20 13 6 359 352 1 3 1 12 9 3 353 324 281 248 243 234 233
245 260 279 284 290 306 319 323 324 324 319 313 313 319 325 328 332 336 339 347 352 356 0 6 9 12 13 19 25 24 20 21 17 5 11 12 7 10 19 17 15 10 62 342 263 245 225
248 261 274 281 284 296 313 320 325 331 325 315 313 317 320 323 327 333 337 342 349 354 358 5 11 13 15 17 23 29 21 17 24 30 20 24 16 6 356 353 349 356 350 359 349 252 221
249 259 267 271 276 288 301 308 320 328 329 321 317 316 318 322 328 332 336 340 346 351 356 3 11 14 17 18 23 30 29 26 29 32 30 25 24 16 3 7 356 1 0 8 353 18 186
253 260 268 271 268 276 292 305 317 329 333 331 324 318 316 321 326 333 335 338 341 347 352 359 9 14 16 19 23 28 32 32 30 31 29 26 32 38 32 24 23 14 4 0 359 104 217
257 261 266 274 270 269 274 286 300 315 330 333 332 329 320 319 322 330 337 344 344 345 347 355 5 13 15 18 22 26 31 35 34 32 30 30 33 37 47 51 45 39 29 28 355 16 338
254 259 265 269 270 266 267 272 283 295 309 324 330 336 336 327 324 326 330 338 344 348 343 350 0 5 12 14 18 23 28 34 38 37 36 37 38 34 37 42 41 43 36 30 31 20 22
259 261 263 266 270 267 262 261 268 278 290 301 314 324 330 335 336 335 332 336 342 351 355 353 353 359 5 10 14 17 22 26 32 38 39 37 36 42 41 44 51 55 53 46 37 29 35
254 258 260 261 264 264 262 260 261 267 275 284 294 305 313 323 331 339 340 343 342 348 352 356 359 354 356 2 7 12 14 17 22 28 35 39 41 40 39 41 46 53 53 56 46 42 51
260 263 263 262 262 264 262 259 260 263 269 274 282 288 298 307 317 325 332 338 341 345 348 347 348 353 354 352 357 3 9 11 15 18 20 30 42 41 41 60 55 50 43 43 41 50 54
261 266 267 265 265 264 263 264 261 263 265 269 274 279 287 294 302 308 315 322 331 337 341 345 348 346 344 348 347 351 357 5 7 11 12 17 21 31 32 38 35 32 29 23 35 65 62
258 256 263 263 269 268 263 263 265 263 265 267 268 272 275 283 291 295 302 308 315 322 329 336 340 345 345 343 342 342 343 350 358 4 5 7 10 12 15 17 19 23 29 35 35 53 86
257 258 259 263 259 266 264 267 268 266 264 265 266 266 270 273 280 288 293 298 301 306 314 321 324 328 335 342 338 337 336 333 339 347 354 1 2 5 7 13 16 25 38 41 47 55 95
264 264 263 263 263 263 262 261 263 269 266 265 266 266 267 269 271 278 283 291 297 302 307 311 314 321 330 331 338 334 332 327 322 327 336 341 352 356 357 357 1 11 25 46 55 64 94
260 261 262 263 263 264 263 265 270 258 268 267 264 265 267 267 269 271 276 281 286 290 294 300 305 310 317 319 322 331 324 322 317 311 313 324 331 339 342 353 357 358 2 17 52 78 90
267 265 264 263 263 263 264 263 263 265 264 267 267 266 265 268 269 269 271 275 281 285 288 293 296 301 310 316 315 317 320 313 311 307 300 299 310 319 323 329 333 339 349 349 350 17 119
265 265 265 264 265 265 266 262 262 262 262 261 260 265 266 267 268 270 270 272 277 282 283 284 288 294 301 305 308 317 312 309 302 302 294 289 286 293 304 310 311 308 315 314 322 316 297
267 266 265 265 266 266 263 261 265 262 261 261 264 263 262 264 265 270 271 272 275 277 278 281 285 289 294 298 303 309 313 305 301 295 296 286 280 275 277 290 294 294 290 285 286 282 282
266 266 267 266 265 264 266 265 263 261 259 262 262 262 263 264 265 265 266 273 274 274 276 280 281 283 287 291 299 304 304 303 299 293 292 292 275 271 266 268 274 275 275 270 272 275 273
269 268 266 265 263 263 264 264 264 264 263 263 261 263 262 263 262 264 267 268 269 272 274 277 280 282 283 288 295 294 296 296 301 291 291 291 280 267 267 266 263 268 264 261 262 267 269
270 268 266 265 263 261 260 260 261 262 262 262 263 261 261 263 264 264 265 264 265 270 274 275 277 285 286 287 292 292 290 290 294 288 289 289 284 275 264 262 263 263 266 259 262 262 263
273 270 265 262 263 263 260 259 258 259 259 259 259 262 261 260 261 263 263 265 264 265 269 275 277 278 282 284 287 294 296 295 297 291 282 283 283 278 268 263 263 260 259 262 264 266 265
269 268 267 265 264 262 261 259 258 258 258 256 255 256 258 261 258 258 259 261 264 263 267 271 272 279 277 279 282 286 291 296 302 291 280 278 281 279 270 264 264 265 265 265 264 268 268
272 271 269 268 267 266 262 260 257 256 255 255 255 252 255 257 257 258 258 259 261 262 264 266 267 272 274 276 282 285 288 290 294 290 278 274 275 273 266 264 266 269 269 266 265 267 270
272 271 270 267 265 265 264 259 256 255 254 253 252 251 252 252 254 255 254 255 258 260 260 263 267 268 268 275 282 286 289 290 290 285 273 269 268 271 267 267 266 263 262 261 261 264 267